When you browse on this site, cookies collect data to enhance your experience and personalize the content and advertising you see.
Visit our Privacy Policy to learn more. By continuing to use the site, you agree to this use of cookies and data.
  • In Hungary
  • List of Countries
  • For 7 days
  • Water Temperature
  • Weather Map
  • News
  • Weather Widgets
  • user-avatar
    Login

    Hourly Weather Tverdy

    Today, 20 October, Sunday

    Time Temperature Precipitation Wind Pressure Humidity
    00:00 +10°C° 0 mm 2 mps 744 mmHg 96%
    01:00 +10°C° 0 mm 2 mps 744 mmHg 97%
    02:00 +11°C° 0 mm 1 mps 744 mmHg 95%
    03:00 +12°C° 0.4 mm 1 mps 744 mmHg 96%
    04:00 +12°C° 0.4 mm 1 mps 744 mmHg 96%
    05:00 +12°C° 0.4 mm 1 mps 744 mmHg 96%
    06:00 +12°C° 0.1 mm 1 mps 744 mmHg 94%
    07:00 +12°C° 0.1 mm 1 mps 745 mmHg 93%
    08:00 +12°C° 0 mm 1 mps 745 mmHg 91%
    09:00 +13°C° 0 mm 1 mps 745 mmHg 88%
    10:00 +13°C° 0 mm 1 mps 745 mmHg 86%
    11:00 +14°C° 0 mm 2 mps 745 mmHg 83%
    12:00 +14°C° 0 mm 2 mps 745 mmHg 83%
    13:00 +14°C° 0 mm 1 mps 745 mmHg 83%
    14:00 +14°C° 0 mm 1 mps 745 mmHg 89%
    15:00 +14°C° 0.5 mm 1 mps 745 mmHg 91%
    16:00 +13°C° 0.5 mm 1 mps 745 mmHg 92%
    17:00 +13°C° 0.5 mm 1 mps 745 mmHg 94%
    18:00 +13°C° 0 mm 1 mps 745 mmHg 94%
    19:00 +12°C° 0 mm 1 mps 745 mmHg 95%
    20:00 +12°C° 0 mm 1 mps 745 mmHg 95%
    21:00 +12°C° 0 mm 2 mps 745 mmHg 95%
    22:00 +12°C° 0 mm 2 mps 745 mmHg 94%
    23:00 +13°C° 0 mm 2 mps 744 mmHg 93%

    Tomorrow, 21 October, Monday

    Time Temperature Precipitation Wind Pressure Humidity
    00:00 +12°C° 0 mm 2 mps 744 mmHg 93%
    01:00 +12°C° 0 mm 2 mps 744 mmHg 93%
    02:00 +11°C° 0 mm 3 mps 744 mmHg 94%
    03:00 +11°C° 0 mm 3 mps 744 mmHg 94%
    04:00 +10°C° 0 mm 3 mps 744 mmHg 94%
    05:00 +10°C° 0 mm 3 mps 744 mmHg 94%
    06:00 +11°C° 0 mm 3 mps 744 mmHg 93%
    07:00 +11°C° 0 mm 3 mps 744 mmHg 92%
    08:00 +11°C° 0 mm 3 mps 744 mmHg 91%
    09:00 +12°C° 0 mm 3 mps 744 mmHg 88%
    10:00 +13°C° 0 mm 3 mps 744 mmHg 84%
    11:00 +14°C° 0 mm 3 mps 744 mmHg 81%
    12:00 +14°C° 0 mm 3 mps 744 mmHg 81%
    13:00 +16°C° 0 mm 3 mps 744 mmHg 81%
    14:00 +16°C° 0 mm 3 mps 745 mmHg 81%
    15:00 +15°C° 0.3 mm 2 mps 745 mmHg 85%
    16:00 +14°C° 0.3 mm 2 mps 745 mmHg 88%
    17:00 +13°C° 0.3 mm 2 mps 745 mmHg 92%
    18:00 +12°C° 0.1 mm 2 mps 746 mmHg 93%
    19:00 +12°C° 0.1 mm 1 mps 746 mmHg 93%
    20:00 +11°C° 0.1 mm 1 mps 746 mmHg 93%
    21:00 +10°C° 0 mm 1 mps 747 mmHg 95%
    22:00 +10°C° 0 mm 1 mps 747 mmHg 96%
    23:00 +9°C° 0 mm 1 mps 747 mmHg 97%

    Day after tomorrow, 22 October, Tuesday

    Time Temperature Precipitation Wind Pressure Humidity
    00:00 +9°C° 0 mm 1 mps 747 mmHg 97%
    01:00 +8°C° 0 mm 1 mps 748 mmHg 97%
    02:00 +8°C° 0 mm 1 mps 748 mmHg 96%
    03:00 +7°C° 0 mm 1 mps 748 mmHg 96%
    04:00 +6°C° 0 mm 0 mps 749 mmHg 96%
    05:00 +5°C° 0 mm 0 mps 749 mmHg 95%
    06:00 +6°C° 0 mm 0 mps 749 mmHg 94%
    07:00 +6°C° 0 mm 0 mps 749 mmHg 93%
    08:00 +6°C° 0 mm 0 mps 749 mmHg 92%
    09:00 +9°C° 0 mm 1 mps 749 mmHg 87%
    10:00 +10°C° 0 mm 1 mps 749 mmHg 81%
    11:00 +12°C° 0 mm 1 mps 749 mmHg 76%
    12:00 +12°C° 0 mm 2 mps 749 mmHg 75%
    13:00 +13°C° 0 mm 2 mps 749 mmHg 74%
    14:00 +14°C° 0 mm 2 mps 749 mmHg 74%
    15:00 +13°C° 0 mm 2 mps 748 mmHg 78%
    16:00 +12°C° 0 mm 2 mps 748 mmHg 83%
    17:00 +12°C° 0 mm 2 mps 747 mmHg 88%
    18:00 +11°C° 0 mm 3 mps 747 mmHg 90%
    19:00 +11°C° 0 mm 3 mps 747 mmHg 92%
    20:00 +11°C° 0 mm 3 mps 747 mmHg 93%
    21:00 +11°C° 0 mm 3 mps 747 mmHg 94%
    22:00 +11°C° 0 mm 3 mps 746 mmHg 94%
    23:00 +11°C° 0 mm 3 mps 746 mmHg 95%

    23 October, Wednesday

    Time Temperature Precipitation Wind Pressure Humidity
    00:00 +11°C° 0 mm 3 mps 746 mmHg 95%
    01:00 +10°C° 0 mm 3 mps 746 mmHg 95%
    02:00 +10°C° 0 mm 3 mps 745 mmHg 95%
    03:00 +10°C° 0 mm 3 mps 745 mmHg 96%
    04:00 +10°C° 0 mm 3 mps 745 mmHg 96%
    05:00 +10°C° 0 mm 2 mps 745 mmHg 96%
    06:00 +10°C° 0 mm 3 mps 745 mmHg 96%
    07:00 +10°C° 0 mm 3 mps 744 mmHg 96%
    08:00 +10°C° 0 mm 3 mps 744 mmHg 96%
    09:00 +11°C° 0 mm 3 mps 744 mmHg 93%
    10:00 +13°C° 0 mm 2 mps 744 mmHg 90%
    11:00 +14°C° 0 mm 2 mps 744 mmHg 88%
    12:00 +14°C° 0 mm 2 mps 744 mmHg 88%
    13:00 +14°C° 0 mm 2 mps 744 mmHg 89%
    14:00 +14°C° 0 mm 2 mps 744 mmHg 90%
    15:00 +13°C° 0 mm 2 mps 744 mmHg 90%
    16:00 +13°C° 0 mm 2 mps 744 mmHg 91%
    17:00 +12°C° 0 mm 2 mps 744 mmHg 92%
    18:00 +12°C° 0 mm 2 mps 744 mmHg 90%
    19:00 +10°C° 0 mm 2 mps 745 mmHg 89%
    20:00 +9°C° 0 mm 2 mps 745 mmHg 87%
    21:00 +10°C° 0 mm 1 mps 745 mmHg 86%
    22:00 +10°C° 0 mm 1 mps 745 mmHg 85%
    23:00 +11°C° 0 mm 1 mps 745 mmHg 83%

    24 October, Thursday

    Time Temperature Precipitation Wind Pressure Humidity
    00:00 +10°C° 0 mm 1 mps 745 mmHg 83%
    01:00 +10°C° 0 mm 1 mps 746 mmHg 83%
    02:00 +10°C° 0 mm 1 mps 746 mmHg 83%
    03:00 +10°C° 0 mm 1 mps 746 mmHg 86%
    04:00 +9°C° 0 mm 1 mps 746 mmHg 88%
    05:00 +7°C° 0 mm 0 mps 746 mmHg 90%
    06:00 +7°C° 0 mm 0 mps 746 mmHg 90%
    07:00 +7°C° 0 mm 0 mps 746 mmHg 90%
    08:00 +7°C° 0 mm 0 mps 746 mmHg 90%
    09:00 +9°C° 0 mm 0 mps 747 mmHg 84%
    10:00 +10°C° 0 mm 0 mps 747 mmHg 78%
    11:00 +12°C° 0 mm 1 mps 747 mmHg 73%
    12:00 +13°C° 0 mm 1 mps 747 mmHg 72%
    13:00 +13°C° 0 mm 1 mps 747 mmHg 71%
    14:00 +13°C° 0 mm 1 mps 747 mmHg 71%
    15:00 +12°C° 0 mm 1 mps 747 mmHg 77%
    16:00 +10°C° 0 mm 0 mps 747 mmHg 82%
    17:00 +9°C° 0 mm 0 mps 747 mmHg 88%
    18:00 +8°C° 0 mm 0 mps 747 mmHg 89%
    19:00 +8°C° 0 mm 0 mps 747 mmHg 91%
    20:00 +8°C° 0 mm 0 mps 747 mmHg 92%
    21:00 +7°C° 0 mm 0 mps 747 mmHg 92%
    22:00 +7°C° 0 mm 0 mps 747 mmHg 93%
    23:00 +8°C° 0 mm 1 mps 747 mmHg 93%

    25 October, Friday

    Time Temperature Precipitation Wind Pressure Humidity
    00:00 +8°C° 0 mm 1 mps 747 mmHg 93%
    01:00 +8°C° 0 mm 1 mps 747 mmHg 93%
    02:00 +7°C° 0 mm 1 mps 748 mmHg 93%
    03:00 +7°C° 0 mm 1 mps 747 mmHg 93%
    04:00 +7°C° 0 mm 1 mps 747 mmHg 93%
    05:00 +7°C° 0 mm 1 mps 747 mmHg 93%
    06:00 +7°C° 0 mm 1 mps 747 mmHg 92%
    07:00 +7°C° 0 mm 1 mps 747 mmHg 91%
    08:00 +7°C° 0 mm 1 mps 747 mmHg 90%
    09:00 +8°C° 0 mm 2 mps 747 mmHg 85%
    10:00 +9°C° 0 mm 2 mps 747 mmHg 80%
    11:00 +10°C° 0 mm 2 mps 747 mmHg 74%
    12:00 +12°C° 0 mm 2 mps 747 mmHg 75%
    13:00 +13°C° 0 mm 2 mps 747 mmHg 75%
    14:00 +13°C° 0 mm 2 mps 746 mmHg 75%
    15:00 +12°C° 0 mm 2 mps 746 mmHg 80%
    16:00 +10°C° 0 mm 2 mps 746 mmHg 86%
    17:00 +9°C° 0 mm 2 mps 745 mmHg 92%
    18:00 +9°C° 0 mm 2 mps 745 mmHg 93%
    19:00 +9°C° 0 mm 3 mps 745 mmHg 94%
    20:00 +9°C° 0 mm 3 mps 745 mmHg 95%
    21:00 +10°C° 0 mm 3 mps 745 mmHg 95%
    22:00 +10°C° 0 mm 3 mps 745 mmHg 96%
    23:00 +10°C° 0 mm 4 mps 745 mmHg 96%
    Show more